Waarnemingen

Advertentie
Mijn weer
Skillinge, Zweden (2625): temperatuur & dauwpunt: 17.10.2017 17:00:00 - 23.10.2017 17:00:00 (CEST)Skillinge, Zweden (2625): windsnelheid & windstoten: 17.10.2017 17:00:00 - 23.10.2017 17:00:00 (CEST)Skillinge, Zweden (2625): windrichting: 17.10.2017 17:00:00 - 23.10.2017 17:00:00 (CEST)Skillinge, Zweden (2625): luchtdruk: 17.10.2017 17:00:00 - 23.10.2017 17:00:00 (CEST)Skillinge, Zweden (2625): zicht: 17.10.2017 17:00:00 - 23.10.2017 17:00:00 (CEST)Skillinge, Zweden (2625): neerslag: 17.10.2017 17:00:00 - 23.10.2017 17:00:00 (CEST)
Datum & Tijd tt [°C] td [°C] ff [km/u] ff [kn] fx [km/u] fx [kn] dd ppp [hPa] vv [km] rr [mm]
23.10.2017 17:00:00 - - - - - - - - - -
23.10.2017 16:00:00 9,7 8,0 39 21 46 25 ONO 1017,2 20 0,0
23.10.2017 15:00:00 10,1 8,0 37 20 48 26 ONO 1016,6 28 0,0
23.10.2017 14:00:00 10,3 7,9 37 20 49 27 ONO 1016,2 26 0,0
23.10.2017 13:00:00 10,3 8,6 40 22 49 27 ONO 1015,5 22 0,0
23.10.2017 12:00:00 10,9 9,5 30 16 37 20 ONO 1014,7 25 0,0
23.10.2017 11:00:00 11,1 9,8 22 12 28 15 ONO 1014,1 27 0,0
23.10.2017 10:00:00 11,0 10,2 15 8 28 15 NO 1013,6 9 0,0
23.10.2017 09:00:00 10,5 9,7 16 9 29 15 NO 1013,1 9 0,0
23.10.2017 08:00:00 10,3 9,5 26 14 29 15 NO 1012,4 9 0,0
23.10.2017 07:00:00 10,6 10,3 12 6 19 10 NO 1011,8 7 0,0
23.10.2017 06:00:00 9,4 9,3 6 4 17 9 NNO 1011,3 5 0,0
23.10.2017 05:00:00 8,8 8,7 11 6 16 9 N 1011,0 0,8 0,0
23.10.2017 04:00:00 9,0 8,7 10 5 14 8 N 1010,7 4,7 0,0
23.10.2017 03:00:00 9,7 9,6 0 0 9 5 N 1010,6 4,0 0,0
23.10.2017 02:00:00 9,8 9,7 5 3 8 4 NNO 1010,6 4,3 0,0
23.10.2017 01:00:00 7,1 7,0 3 1 5 3 NO 1010,6 0,6 0,0
23.10.2017 00:00:00 6,7 6,4 0 0 5 3 N 1010,4 1,8 0,0
22.10.2017 23:00:00 6,6 6,5 0 0 9 5 N 1010,1 0,1 0,0
22.10.2017 22:00:00 7,5 7,2 0 0 10 6 N 1009,9 0,2 0,0
22.10.2017 21:00:00 9,1 8,8 8 5 10 6 WZW 1009,8 7 0,0
22.10.2017 20:00:00 8,9 8,4 3 2 12 6 ZW 1009,7 4,0 0,0
22.10.2017 19:00:00 9,5 8,9 6 3 16 9 WZW 1009,3 10 0,0
22.10.2017 18:00:00 11,3 10,2 9 5 16 9 WZW 1008,9 13 0,0
22.10.2017 17:00:00 11,6 10,8 7 4 11 6 Z 1008,6 8 0,0
22.10.2017 16:00:00 11,8 11,2 4 2 8 5 ZW 1008,4 12 0,0
22.10.2017 15:00:00 11,0 10,4 5 3 24 13 ZW 1008,4 16 0,2
22.10.2017 14:00:00 11,0 10,4 5 3 27 14 WZW 1008,6 16 0,7
22.10.2017 13:00:00 10,6 10,0 22 12 27 14 OZO 1008,7 4,5 1,9
22.10.2017 12:00:00 10,6 9,7 21 12 26 14 O 1009,1 7 1,8
22.10.2017 11:00:00 10,7 9,9 17 9 22 12 OZO 1009,7 6 1,6
22.10.2017 10:00:00 10,9 9,8 11 6 22 12 ZO 1010,1 4,8 0,2
22.10.2017 09:00:00 10,8 9,1 8 4 22 12 ZZO 1010,5 12 1,2
22.10.2017 08:00:00 11,1 10,0 8 4 22 12 ZZO 1010,5 8 1,2
22.10.2017 07:00:00 11,1 10,5 8 4 22 12 ZO 1010,7 4,3 1,4
22.10.2017 06:00:00 11,1 10,5 17 9 22 12 OZO 1010,8 6 0,0
22.10.2017 05:00:00 11,1 10,3 16 9 22 12 ZO 1011,6 5 0,0
22.10.2017 04:00:00 11,1 10,3 10 5 21 11 ZO 1012,1 8 0,0
22.10.2017 03:00:00 11,0 10,5 17 9 21 11 OZO 1012,3 4,9 0,0
22.10.2017 02:00:00 11,0 10,7 14 8 18 10 OZO 1012,7 4,6 0,0
22.10.2017 01:00:00 11,0 10,8 10 5 16 9 O 1013,3 3,2 0,0
22.10.2017 00:00:00 11,1 10,9 12 7 14 8 O 1013,8 5 0,0
21.10.2017 23:00:00 11,0 10,8 5 3 10 5 OZO 1014,1 4,5 0,0
21.10.2017 22:00:00 11,1 10,9 0 0 11 6 N 1014,3 3,9 0,0
21.10.2017 21:00:00 11,0 10,8 2 1 25 14 ZO 1014,0 4,2 0,0
21.10.2017 20:00:00 11,2 11,0 9 5 25 14 Z 1014,1 1,1 0,0
21.10.2017 19:00:00 11,4 11,2 21 11 25 14 O 1013,9 0,5 0,0
21.10.2017 18:00:00 11,4 11,2 21 12 26 14 ONO 1013,8 0,2 0,0
21.10.2017 17:00:00 11,4 11,2 19 11 26 14 O 1013,6 0,5 0,0
21.10.2017 16:00:00 11,5 11,3 20 11 24 13 O 1013,5 0,1 0,0
21.10.2017 15:00:00 11,4 11,2 15 8 22 12 O 1013,3 0,1 0,0
21.10.2017 14:00:00 11,4 11,2 17 9 22 12 O 1013,0 0,3 0,0
21.10.2017 13:00:00 11,4 11,2 16 8 20 11 ONO 1013,2 0,1 0,0
21.10.2017 12:00:00 11,5 11,3 16 8 18 10 O 1013,2 0,1 0,0
21.10.2017 11:00:00 11,4 11,2 15 8 21 11 ONO 1012,9 0,4 0,0
21.10.2017 10:00:00 11,4 11,1 14 8 21 11 ONO 1012,7 0,9 0,0
21.10.2017 09:00:00 11,4 11,1 15 8 19 11 NO 1012,4 1,0 0,1
21.10.2017 08:00:00 11,3 11,0 10 6 20 11 NNO 1012,3 1,4 0,1
21.10.2017 07:00:00 11,3 11,0 14 8 26 14 NO 1012,0 1,5 0,0
21.10.2017 06:00:00 11,3 11,0 17 9 26 14 NO 1012,1 1,8 0,2
21.10.2017 05:00:00 11,2 10,9 21 11 29 16 ONO 1012,2 1,8 2,2
21.10.2017 04:00:00 11,2 10,9 22 12 33 18 NO 1012,3 1,3 5,9
21.10.2017 03:00:00 11,2 10,9 22 12 33 18 ONO 1012,7 1,2 1,2
21.10.2017 02:00:00 11,2 10,9 24 13 29 16 ONO 1012,7 1,5 0,6
21.10.2017 01:00:00 11,3 11,0 17 9 22 12 NO 1013,2 1,0 0,9
21.10.2017 00:00:00 11,3 11,0 16 9 24 13 NO 1013,4 1,1 1,3
20.10.2017 23:00:00 11,3 11,0 13 7 24 13 ONO 1013,7 1,3 4,7
20.10.2017 22:00:00 11,3 11,0 16 9 21 12 ONO 1013,4 1,5 0,5
20.10.2017 21:00:00 11,2 10,9 16 8 20 11 ONO 1013,5 1,5 0,3
20.10.2017 20:00:00 11,3 11,0 14 8 20 11 ONO 1013,8 1,8 0,0
20.10.2017 19:00:00 11,2 10,9 16 9 20 11 ONO 1013,9 1,7 0,0
20.10.2017 18:00:00 11,2 10,7 14 8 23 12 ONO 1014,0 1,0 0,0
20.10.2017 17:00:00 11,3 10,7 13 7 26 14 O 1014,2 1,8 0,0
20.10.2017 16:00:00 11,3 10,7 19 10 26 14 O 1014,2 3,3 0,2
20.10.2017 15:00:00 11,4 10,6 20 11 32 17 O 1014,3 3,7 0,0
20.10.2017 14:00:00 11,5 10,6 22 12 32 17 OZO 1014,6 3,3 0,0
20.10.2017 13:00:00 11,6 10,5 21 12 29 15 OZO 1014,9 4,8 0,0
20.10.2017 12:00:00 11,6 10,8 20 11 26 14 O 1015,0 3,7 0,0
20.10.2017 11:00:00 11,6 11,0 20 11 25 13 O 1015,0 4,4 0,0
20.10.2017 10:00:00 11,5 10,7 18 10 25 13 O 1015,1 3,6 0,0
20.10.2017 09:00:00 11,5 10,7 19 10 26 14 O 1015,0 3,1 0,0
20.10.2017 08:00:00 11,4 10,6 15 8 29 16 OZO 1015,0 3,8 0,0
20.10.2017 07:00:00 11,4 10,5 21 11 31 17 OZO 1015,0 7 0,0
20.10.2017 06:00:00 11,4 10,6 24 13 31 17 O 1015,1 10 0,0
20.10.2017 05:00:00 11,5 10,6 23 12 32 18 O 1015,6 11 0,0
20.10.2017 04:00:00 11,5 10,7 24 13 32 18 O 1015,8 12 0,0
20.10.2017 03:00:00 11,4 10,6 24 13 32 17 O 1016,2 12 0,0
20.10.2017 02:00:00 11,5 10,6 25 14 32 17 O 1016,7 13 0,0
20.10.2017 01:00:00 11,5 10,6 25 13 35 19 O 1017,0 15 0,0
20.10.2017 00:00:00 11,4 10,3 26 14 35 19 O 1017,3 17 0,0
19.10.2017 23:00:00 11,4 10,0 29 16 36 19 O 1017,7 21 0,0
19.10.2017 22:00:00 11,3 9,7 24 13 37 20 O 1017,9 22 0,0
19.10.2017 21:00:00 11,2 9,1 29 15 39 21 O 1017,7 32 0,0
19.10.2017 20:00:00 11,2 9,1 30 16 41 22 O 1017,8 35 0,0
19.10.2017 19:00:00 11,2 9,6 32 18 41 22 O 1017,7 26 0,0
19.10.2017 18:00:00 11,2 9,9 28 15 34 18 O 1017,7 27 0,0
19.10.2017 17:00:00 11,2 10,7 24 13 34 18 O 1017,9 15 0,0
19.10.2017 16:00:00 11,2 10,7 29 15 34 18 O 1017,5 13 0,0
19.10.2017 15:00:00 11,2 10,7 24 13 34 18 O 1018,1 8 0,0
19.10.2017 14:00:00 11,1 10,5 22 12 34 19 O 1018,4 6 0,0
19.10.2017 13:00:00 11,1 10,5 26 14 35 19 O 1018,3 9 0,0
19.10.2017 12:00:00 11,1 10,5 28 15 34 18 O 1018,2 1,9 0,0
19.10.2017 11:00:00 11,2 10,6 24 13 31 17 O 1018,4 16 0,0
19.10.2017 10:00:00 11,0 10,5 24 13 29 16 O 1018,2 14 0,0
19.10.2017 09:00:00 10,9 10,4 23 13 31 17 O 1017,7 12 0,0
19.10.2017 08:00:00 10,9 10,3 24 13 31 17 O 1017,2 16 0,0
19.10.2017 07:00:00 10,9 10,3 26 14 31 17 O 1017,0 22 0,0
19.10.2017 06:00:00 10,7 10,1 25 13 30 16 O 1016,9 30 0,0
19.10.2017 05:00:00 10,8 10,2 24 13 29 16 O 1016,8 25 0,0
19.10.2017 04:00:00 10,9 10,3 23 12 29 16 O 1016,7 11 0,0
19.10.2017 03:00:00 10,8 10,3 23 13 27 15 O 1016,6 12 0,6
19.10.2017 02:00:00 10,9 10,4 19 10 25 13 O 1016,8 14 0,6
19.10.2017 01:00:00 11,0 10,5 14 8 16 9 ONO 1016,5 4,7 1,5
19.10.2017 00:00:00 11,7 10,9 8 5 14 8 NNO 1016,4 9 0,8
18.10.2017 23:00:00 11,9 11,3 4 2 8 4 N 1016,4 11 0,0
18.10.2017 22:00:00 11,9 11,3 4 2 9 5 NW 1016,1 10 0,0
18.10.2017 21:00:00 11,6 11,0 5 3 9 5 ZW 1015,9 7 0,0
18.10.2017 20:00:00 11,6 10,7 2 1 7 4 ZW 1015,4 10 0,0
18.10.2017 19:00:00 12,2 11,3 4 2 10 5 WNW 1015,1 14 0,0
18.10.2017 18:00:00 12,2 11,1 5 3 15 8 WZW 1014,9 12 0,0
18.10.2017 17:00:00 12,7 11,1 6 4 18 10 WZW 1014,7 13 0,0
18.10.2017 16:00:00 13,1 11,3 9 5 18 10 ZW 1014,4 14 0,1
18.10.2017 15:00:00 13,4 11,1 9 5 23 12 WZW 1014,4 16 0,0
18.10.2017 14:00:00 13,2 11,3 12 6 27 15 WZW 1014,6 13 0,0
18.10.2017 13:00:00 13,3 11,2 18 10 27 15 WZW 1014,5 13 0,0
18.10.2017 12:00:00 13,8 11,5 13 7 30 16 WZW 1014,3 13 0,0
18.10.2017 11:00:00 13,2 10,7 17 9 30 16 WZW 1014,2 13 0,0
18.10.2017 10:00:00 13,1 10,8 16 8 24 13 WZW 1014,0 13 0,0
18.10.2017 09:00:00 12,5 10,7 14 8 22 12 WZW 1013,8 12 0,0
18.10.2017 08:00:00 11,8 10,0 13 7 30 16 WZW 1013,3 12 0,0
18.10.2017 07:00:00 12,1 10,2 16 9 34 18 WZW 1012,9 11 0,0
18.10.2017 06:00:00 11,8 10,4 20 11 41 22 WZW 1012,9 10 0,0
18.10.2017 05:00:00 11,7 10,6 16 9 41 22 WZW 1012,8 9 0,0
18.10.2017 04:00:00 11,8 10,2 25 14 42 23 WZW 1012,6 10 0,0
18.10.2017 03:00:00 11,8 10,0 27 15 44 24 WZW 1012,7 10 0,0
18.10.2017 02:00:00 12,0 10,1 28 15 44 24 WZW 1013,1 11 0,0
18.10.2017 01:00:00 12,1 9,8 27 15 41 22 WZW 1013,5 12 0,0
18.10.2017 00:00:00 12,2 9,8 26 14 41 22 WZW 1013,8 13 0,0
17.10.2017 23:00:00 12,2 9,8 23 12 39 21 WZW 1014,1 13 0,0
17.10.2017 22:00:00 12,1 9,7 20 11 39 21 WZW 1014,3 12 0,0
17.10.2017 21:00:00 12,2 9,9 23 12 39 21 WZW 1014,3 11 0,0
17.10.2017 20:00:00 12,8 10,3 25 13 39 21 WZW 1014,6 11 0,0
17.10.2017 19:00:00 12,8 10,5 22 12 40 21 WZW 1014,7 11 0,0
17.10.2017 18:00:00 13,1 10,6 18 10 40 22 WZW 1014,7 11 0,0
17.10.2017 17:00:00 13,4 10,8 21 12 45 24 WZW 1014,6 11 0,0

tt = temperatuur
td = dauwpunt
ff = windsnelheid
fx = windstoten
dd = windrichting
ppp = luchtdruk
vv = zicht
rr = neerslag

Weerstations in de omgeving